Content
SEND FEEDBACK

Daily
Averages
Monthly
Summary
Mexico

COZUMEL, QUINTANA ROO


Home > North America > Mexico > Quintana Roo
Elevation: 15 feet     Latitude: 20 31N     Longitude: 086 56W

WEATHER
 
SELECT A DAY
Number of Records: 127,289;   Date Range: 1/1/95 - 10/23/14
 
SHARE

PRINT THIS DATA

[ ← Previous Day ]
WEATHER ALMANAC - AUGUST 25, 2014
[ Next Day → ]
[ °C ]   °F
Weather ElementAverageHighLow
Temperature80.5 °F89.6 °F (2:42 pm)75.2 °F (12:44 am)
Dewpoint76.3 °F77 °F (7:43 am)73.4 °F (1:57 am)
Humidity87.9 %100 % (12:44 am)62 % (10:42 am)
Barometer29.84 in29.90 in (2:48 pm)29.79 in (6:53 pm)
Wind Speed5.8 mph11.5 mph (2:50 pm)
Weather ElementAverage
Visibility7.5 mi
Wind DirectionSSW (205 °)

Weather ElementTotal
Precipitation---
Cooling Degree Days17.4 (Base 65)
Growing Degree Days32.4 (Base 50)
Averaged from 24 records on August 25, 2014
WEATHER CONDITIONS BREAKOUT
WIND DIRECTION BREAKOUT
WEATHER BY HOUR - AUGUST 25, 2014
[ °C ]   °F
Local TimeTemperatureDewpointHumidityBarometerVisibilityWind DirectionWind SpeedGust SpeedPrecipitationEventsConditions
12:50 AM78.8 °F77.0 °F94 %29.86 in7.0 miCalmPartly Cloudy
1:46 AM77.0 °F77.0 °F100 %29.86 in7.0 miNNW (340°)3.5 mphPartly Cloudy
2:47 AM77.0 °F77.0 °F100 %29.84 in7.0 miCalmPartly Cloudy
3:48 AM77.0 °F77.0 °F100 %29.86 in7.0 miNorth (350°)5.8 mphClear
4:43 AM77.0 °F77.0 °F100 %29.84 in7.0 miNorth (360°)5.8 mphClear
5:46 AM77.0 °F77.0 °F100 %29.82 in7.0 miNNW (330°)6.9 mphClear
6:46 AM75.2 °F75.2 °F100 %29.82 in8.0 miNNW (340°)6.9 mphClear
7:42 AM78.8 °F77.0 °F94 %29.84 in8.0 miNNW (340°)6.9 mphClear
8:48 AM78.8 °F77.0 °F94 %29.86 in8.0 miNW (320°)8.1 mphClear
9:41 AM80.6 °F77.0 °F89 %29.90 in8.0 miNNW (340°)8.1 mphScattered Clouds
10:40 AM84.2 °F77.0 °F79 %29.87 in8.0 miNorth (360°)8.1 mphScattered Clouds
11:42 AM86.0 °F73.4 °F66 %29.85 in8.0 miNNW (340°)4.6 mphScattered Clouds
12:40 PM87.8 °F75.2 °F66 %29.83 in8.0 miNorth (10°)4.6 mphScattered Clouds
1:40 PM89.6 °F75.2 °F62 %29.81 in8.0 miENE (60°)9.2 mphScattered Clouds
2:43 PM87.8 °F73.4 °F62 %29.79 in8.0 miNNE (20°)11.5 mphScattered Clouds
3:52 PM84.2 °F75.2 °F74 %29.83 in8.0 miNE (40°)10.4 mphMostly Cloudy
4:52 PM80.6 °F75.2 °F84 %29.80 in8.0 miNW (320°)9.2 mphMostly Cloudy
5:46 PM80.6 °F75.2 °F84 %29.79 in8.0 miNNE (30°)3.5 mphMostly Cloudy
6:51 PM80.6 °F77.0 °F89 %29.79 in7.0 miCalmScattered Clouds
7:41 PM78.8 °F77.0 °F94 %29.81 in7.0 miENE (60°)4.6 mphScattered Clouds
8:46 PM80.6 °F77.0 °F89 %29.83 in7.0 miNNE (30°)4.6 mphPartly Cloudy
9:49 PM80.6 °F77.0 °F89 %29.87 in7.0 miNorth (350°)4.6 mphPartly Cloudy
10:43 PM77.0 °F77.0 °F100 %29.84 in7.0 miWest (280°)3.5 mphPartly Cloudy
11:44 PM77.0 °F77.0 °F100 %29.85 in7.0 miWNW (300°)8.1 mphPartly Cloudy
Hourly data recorded from MMCZ, located miles away from Cozumel, Quintana Roo







STORIES FROM OUR PARTNERS